This is the latest recevied weather packets stored in our database for station/object N9BID. If no packets are shown the sender has not sent any weather packets the latest 10 day(s).
| Time | Temp. | Humidity | Pressure | Rain* | Wind** | Luminosity | Snow |
|---|---|---|---|---|---|---|---|
| 1777811293 | 9.44° C | 72% | 998.8 hPa | 0 mm | - | 66 W/m² | - |
| 1777810991 | 9.44° C | 73% | 999.1 hPa | 0 mm | - | 52 W/m² | - |
| 1777810688 | 8.89° C | 74% | 998.9 hPa | 0 mm | - | 35 W/m² | - |
| 1777810385 | 8.89° C | 73% | 999 hPa | 0 mm | - | 36 W/m² | - |
| 1777810080 | 8.89° C | 72% | 998.9 hPa | 0 mm | - | 34 W/m² | - |
| 1777809778 | 8.89° C | 71% | 998.8 hPa | 0 mm | - | 26 W/m² | - |
| 1777809476 | 8.89° C | 70% | 998.8 hPa | 0 mm | - | 16 W/m² | - |
| 1777809173 | 8.89° C | 68% | 998.9 hPa | 0 mm | - | 18 W/m² | - |
| 1777808871 | 8.89° C | 68% | 998.8 hPa | 0 mm | - | 29 W/m² | - |
| 1777808568 | 8.89° C | 69% | 999.1 hPa | 0 mm | - | 30 W/m² | - |
| 1777808264 | 8.89° C | 69% | 999.3 hPa | 0 mm | - | 26 W/m² | - |
| 1777807963 | 8.33° C | 71% | 999.3 hPa | 0 mm | - | 23 W/m² | - |
| 1777807660 | 8.33° C | 73% | 999.3 hPa | 0 mm | - | 18 W/m² | - |
| 1777807358 | 8.33° C | 70% | 999.4 hPa | 0 mm | - | 11 W/m² | - |
| 1777807053 | 8.33° C | 71% | 999.5 hPa | 0 mm | - | 6 W/m² | - |
| 1777806751 | 8.89° C | 69% | 999.5 hPa | 0 mm | - | 5 W/m² | - |
| 1777806447 | 8.33° C | 69% | 999.3 hPa | 0 mm | - | 3 W/m² | - |
| 1777806144 | 8.33° C | 70% | 999.5 hPa | 0 mm | - | 2 W/m² | - |
| 1777805840 | 8.33° C | 70% | 999.5 hPa | 0 mm | - | 0 W/m² | - |
| 1777805537 | 8.33° C | 70% | 999.4 hPa | 0 mm | - | 0 W/m² | - |
| 1777805235 | 7.78° C | 70% | 999.5 hPa | 0 mm | - | 0 W/m² | - |
| 1777804933 | 7.78° C | 70% | 999.3 hPa | 0 mm | - | 0 W/m² | - |
| 1777804630 | 7.78° C | 71% | 999 hPa | 0 mm | - | 0 W/m² | - |
| 1777804328 | 7.78° C | 73% | 999.1 hPa | 0 mm | - | 0 W/m² | - |
| 1777804024 | 7.78° C | 73% | 999.3 hPa | 0 mm | - | 0 W/m² | - |
* Rain latest hour (hover to see other rain measurements)
** Current wind speed in m/s (hover to see current wind gust speed)